Location: Ernsee
(50.8780°N, 12.0389°E)
Time: 21:20:05
(UTC+00:00)

Cosmos 1825 Rocket - Pass Details

Date: 20 January 2020
Orbit: 604 x 630 km, 82.5° (Epoch: 28 February)

Event Time Altitude Azimuth Distance (km) Brightness Sun altitude
Exits shadow 04:57:36 19° 343° (NNW) 1,451 5.2 -19.4°
Maximum altitude 05:00:37 70° 263° (W) 648 3.4 -19.0°
Drops below altitude 10° 05:04:55 10° 180° (S) 1,955 6.2 -18.3°
Sets 05:07:08 0° 178° (S) 2,857 7.1 -18.0°
